Regional Weather Roundup
Issued by NWS

Home | Current Version | Previous Version | Graphics & Text | Print | Product List | Glossary On
Versions: 1 2 3 4 5 6 7 8 9 10 11 12 13 14 15 16 17 18 19 20 21 22 23 24 25 26 27 28 29 30 31 32 33 34 35 36 37 38 39 40 41 42 43 44 45 46 47 48 49 50
000
ASUS45 KSLC 250810
RWRUT

UTAH REGIONAL WEATHER ROUNDUP
NATIONAL WEATHER SERVICE SALT LAKE CITY UT
200 AM MDT WED MAY 25 2016

UTZ001>011-023>025-250900-

NORTHERN UTAH

CITY           SKY/WX    TMP DP  RH WIND       PRES   REMARKS
BRIGHAM CITY     N/A     48  43  81 N6        29.95S
HILL AFB       PTCLDY    47  39  72 S7        29.96R
LOGAN          CLOUDY    45  43  93 CALM      29.95R
OGDEN          PTCLDY    49  40  71 S10       29.94R
PROVO AIRPORT  CLOUDY    48  36  61 S7        29.98R
SALT LAKE CITY PTCLDY    52  39  61 E6        29.95R
VERNAL         CLEAR     48  33  56 CALM      29.97R
WENDOVER       CLOUDY    52  36  54 NW10      29.97R
HEBER CITY     CLOUDY    41  37  87 CALM      29.99S
WEST JORDAN    CLEAR     48  39  71 CALM      29.97R

$$

UTZ012>022-026-027-250900-

SOUTHERN/CENTRAL UTAH

CITY           SKY/WX    TMP DP  RH WIND       PRES   REMARKS
BLANDING       PTCLDY    48  19  31 E5        30.12R
BRYCE CANYON   PTCLDY    30  22  72 W7        30.12R WCI  23
CEDAR CITY     PTCLDY    47  26  44 SE6       30.02R
DELTA          MOCLDY    45  36  70 CALM      29.98R
HANKSVILLE     CLEAR     54  27  35 W3        29.99S
MILFORD        MOCLDY    51  26  37 S14       30.00R
MOAB/CYNLANDS  CLEAR     56  27  32 W10       29.95R
PRICE          MOCLDY    48  27  44 CALM      30.00R
ST GEORGE      MOSUNNY   61  27  27 SE7       29.96R

$$

REGIONAL REPORTS     COLORADO/ARIZONA

CITY           SKY/WX    TMP DP  RH WIND       PRES   REMARKS
CRAIG, CO      CLOUDY    46  38  73 W6        30.06R
GRAND JUNCTION CLOUDY    50  28  42 NW3       29.96R
RIFLE          PTCLDY    57  28  33 NW7       29.98R
MONTROSE       CLEAR     50  23  34 S7        30.03R
CORTEZ         CLOUDY    57  19  22 S12       30.06S
PAGE, AZ       PTCLDY    61  25  25 CALM      29.99R
GRAND CANYON   PTCLDY    40  16  37 CALM      30.11R
KINGMAN        PTCLDY    55  23  28 SE6       29.97S
FLAGSTAFF      PTCLDY    45  17  32 W8        30.13R

$$

REGIONAL REPORTS    NEVADA/IDAHO/WYOMING

CITY           SKY/WX    TMP DP  RH WIND       PRES   REMARKS
LAS VEGAS, NV  PTCLDY    67  32  27 SW7       29.87S
ELY            PTCLDY    36  34  92 S7        30.04S WCI  30
ELKO           CLOUDY    44  40  85 CALM      30.01S
POCATELLO, ID  CLOUDY    47  45  93 W5        29.95R
BURLEY         CLOUDY    49  40  71 SW13      29.91S
EVANSTON, WY   CLOUDY    36  32  85 SW5       30.02S WCI  32
ROCK SPRINGS   CLOUDY    38  33  82 W5        30.02S WCI  34
KEMMERER         N/A     34  34 100 N5        30.02S WCI  30

$$



USA.gov is the U.S. government's official web portal to all federal, state and local government web resources and services.